Home > Weather > Jersey City > Past weeks

Flag for U.S.A. Weather for the Past 2 Weeks in Jersey City, New Jersey, U.S.A.

Now
22 °F

Partly sunny.


Feels Like: 6 °F
Forecast: 7 / 22 °F
Wind: 23 mph from Northwest

Location: Newark International Airport

Current Time: Feb 13, 2016 at 12:49:06 PM

Latest Report: Feb 13, 2016 at 11:51 AM


Visibility: 10 mi

Pressure: 30.07 "Hg

Humidity: N/A

Dew point: N/A

Location of Jersey CityLocation

Historic Weather in Jersey City — Graph

°F

Jersey City Temperature Yesterday

Maximum temperature yesterday: 27 °F (at 1:51 PM)
Minimum temperature yesterday: 15 °F (at 4:51 AM)
Average temperature yesterday: 21 °F

High & Low Weather Summary for the Past Weeks

 TemperatureHumidityPressure
High58 °F (Feb 3, 2:51 PM)100% (Feb 3, 11:51 PM)30.44 "Hg (Feb 3, 11:51 PM)
Low15 °F (Feb 12, 4:51 AM)28% (Feb 11, 10:51 AM)29.47 "Hg (Jan 29, 12:51 PM)
Average37 °F63%29.97 "Hg
* Reported Jan 29 11:51 AM — Feb 13 11:51 AM, Jersey City, Weather by CustomWeather, © 2016

Note: Actual official high and low records may vary slightly from our data, if they occured in-between our weather recording intervals... More about our weather records

Advertising

Jersey City Weather History for the Previous 24 Hours

 ConditionsComfort  
Time TempWeatherWind HumidityBarometerVisibility
11:51 AM
Sat, Feb 13
22 °FPartly sunny.23 mphN/A30.07 "Hg10 mi
10:51 AM23 °FScattered clouds.25 mph30%30.05 "Hg10 mi
9:51 AM21 °FLight snow. Broken clouds.23 mph50%30.03 "Hg3 mi
8:51 AM24 °FScattered clouds.24 mph40%30.01 "Hg10 mi
7:51 AM22 °FScattered clouds.22 mph42%29.98 "Hg10 mi
6:51 AM21 °FPassing clouds.15 mph65%29.94 "Hg10 mi
5:51 AM21 °FPassing clouds.15 mph71%29.90 "Hg10 mi
4:51 AM21 °FPassing clouds.13 mph71%29.88 "Hg10 mi
3:51 AM20 °FPassing clouds.12 mph74%29.88 "Hg10 mi
2:51 AM20 °FPassing clouds.10 mph71%29.89 "Hg10 mi
1:51 AM21 °FMostly cloudy.12 mph68%29.90 "Hg10 mi
12:51 AM21 °FMostly cloudy.10 mph65%29.92 "Hg10 mi
11:51 PM
Fri, Feb 12
22 °FMostly cloudy.10 mph57%29.94 "Hg10 mi
10:51 PM22 °FMostly cloudy.12 mph57%29.95 "Hg10 mi
9:51 PM22 °FMostly cloudy.10 mph57%29.96 "Hg10 mi
8:51 PM23 °FMostly cloudy.10 mph50%29.97 "Hg10 mi
7:51 PM23 °FLight snow. Mostly cloudy.13 mph50%30.00 "Hg10 mi
6:51 PM24 °FMostly cloudy.6 mph40%30.01 "Hg10 mi
5:51 PM25 °FMostly cloudy.9 mph38%30.02 "Hg10 mi
3:51 PM26 °FMostly cloudy.12 mph32%30.05 "Hg10 mi
2:51 PM27 °FMore clouds than sun.10 mph31%30.07 "Hg10 mi
1:51 PM27 °FMore clouds than sun.12 mph28%30.11 "Hg10 mi
12:51 PM26 °FMore clouds than sun.8 mph31%30.14 "Hg10 mi
Weather by CustomWeather, © 2016

See weather overviewHow to use our weather pages